• în România
  • Lista ţărilor
  • Pe 7 zile
  • Temperatura apei
  • Hartă satelitară
  • Meteo pe hartă
  • Widget-uri
  • user-avatar
    Intrare

    Meteo pe oră la Zelenaya Niva

    Astăzi, 23 Septembrie, Duminică

    Timp Temperatura Precipitaţii Vânt Presiune Umiditate
    00:00 +11°C° 1 mm 3 m/s 741 mmHg 89%
    01:00 +10°C° 1 mm 3 m/s 741 mmHg 90%
    02:00 +10°C° 1 mm 3 m/s 741 mmHg 92%
    03:00 +10°C° 1.4 mm 3 m/s 741 mmHg 93%
    04:00 +10°C° 1.4 mm 3 m/s 740 mmHg 93%
    05:00 +9°C° 1.4 mm 2 m/s 740 mmHg 94%
    06:00 +10°C° 0.5 mm 3 m/s 740 mmHg 93%
    07:00 +10°C° 0.5 mm 3 m/s 740 mmHg 92%
    08:00 +10°C° 0.5 mm 3 m/s 740 mmHg 91%
    09:00 +11°C° 0.1 mm 3 m/s 740 mmHg 84%
    10:00 +12°C° 0.1 mm 4 m/s 740 mmHg 78%
    11:00 +13°C° 0.1 mm 4 m/s 741 mmHg 71%
    12:00 +13°C° 0.1 mm 4 m/s 740 mmHg 69%
    13:00 +13°C° 0.1 mm 5 m/s 740 mmHg 66%
    14:00 +14°C° 0.1 mm 5 m/s 740 mmHg 64%
    15:00 +13°C° 0.1 mm 4 m/s 740 mmHg 68%
    16:00 +12°C° 0.1 mm 3 m/s 740 mmHg 72%
    17:00 +11°C° 0.1 mm 3 m/s 740 mmHg 76%
    18:00 +10°C° 0 mm 3 m/s 740 mmHg 80%
    19:00 +9°C° 0 mm 3 m/s 740 mmHg 83%
    20:00 +9°C° 0 mm 3 m/s 741 mmHg 87%
    21:00 +8°C° 0 mm 3 m/s 741 mmHg 88%
    22:00 +8°C° 0 mm 3 m/s 741 mmHg 89%
    23:00 +8°C° 0 mm 3 m/s 740 mmHg 90%

    Mâine, 24 Septembrie, Luni

    Timp Temperatura Precipitaţii Vânt Presiune Umiditate
    00:00 +7°C° 0 mm 3 m/s 741 mmHg 91%
    01:00 +7°C° 0 mm 3 m/s 741 mmHg 92%
    02:00 +7°C° 0 mm 3 m/s 741 mmHg 93%
    03:00 +7°C° 0 mm 3 m/s 741 mmHg 94%
    04:00 +6°C° 0 mm 2 m/s 741 mmHg 95%
    05:00 +6°C° 0 mm 2 m/s 740 mmHg 96%
    06:00 +7°C° 0 mm 2 m/s 740 mmHg 92%
    07:00 +8°C° 0 mm 2 m/s 740 mmHg 88%
    08:00 +9°C° 0 mm 2 m/s 740 mmHg 85%
    09:00 +9°C° 0.1 mm 2 m/s 740 mmHg 82%
    10:00 +10°C° 0.1 mm 3 m/s 739 mmHg 80%
    11:00 +11°C° 0.1 mm 3 m/s 739 mmHg 78%
    12:00 +10°C° 0.8 mm 3 m/s 739 mmHg 82%
    13:00 +10°C° 0.8 mm 3 m/s 738 mmHg 87%
    14:00 +9°C° 0.8 mm 3 m/s 737 mmHg 91%
    15:00 +9°C° 1.3 mm 3 m/s 737 mmHg 92%
    16:00 +9°C° 1.3 mm 3 m/s 736 mmHg 93%
    17:00 +8°C° 1.3 mm 3 m/s 735 mmHg 94%
    18:00 +8°C° 1.3 mm 3 m/s 735 mmHg 94%
    19:00 +8°C° 1.3 mm 3 m/s 734 mmHg 94%
    20:00 +7°C° 1.3 mm 4 m/s 733 mmHg 95%
    21:00 +6°C° 1.7 mm 4 m/s 732 mmHg 95%
    22:00 +6°C° 1.7 mm 4 m/s 731 mmHg 94%
    23:00 +6°C° 1.7 mm 5 m/s 730 mmHg 94%

    Poimâine, 25 Septembrie, Marţi

    Timp Temperatura Precipitaţii Vânt Presiune Umiditate
    00:00 +6°C° 1.5 mm 5 m/s 730 mmHg 94%
    01:00 +5°C° 1.5 mm 6 m/s 730 mmHg 93%
    02:00 +5°C° 1.5 mm 6 m/s 730 mmHg 92%
    03:00 +5°C° 1 mm 7 m/s 730 mmHg 91%
    04:00 +5°C° 1 mm 7 m/s 731 mmHg 91%
    05:00 +5°C° 1 mm 7 m/s 731 mmHg 90%
    06:00 +5°C° 0.9 mm 7 m/s 732 mmHg 89%
    07:00 +5°C° 0.9 mm 8 m/s 732 mmHg 88%
    08:00 +5°C° 0.9 mm 8 m/s 733 mmHg 87%
    09:00 +5°C° 0.6 mm 8 m/s 734 mmHg 85%
    10:00 +5°C° 0.6 mm 8 m/s 735 mmHg 83%
    11:00 +5°C° 0.6 mm 8 m/s 736 mmHg 81%
    12:00 +5°C° 0.2 mm 8 m/s 737 mmHg 79%
    13:00 +5°C° 0.2 mm 7 m/s 738 mmHg 77%
    14:00 +6°C° 0.2 mm 7 m/s 739 mmHg 75%
    15:00 +5°C° 0.1 mm 7 m/s 739 mmHg 75%
    16:00 +5°C° 0.1 mm 7 m/s 740 mmHg 76%
    17:00 +5°C° 0.1 mm 6 m/s 741 mmHg 76%
    18:00 +4°C° 0 mm 6 m/s 742 mmHg 75%
    19:00 +4°C° 0 mm 6 m/s 743 mmHg 73%
    20:00 +3°C° 0 mm 6 m/s 744 mmHg 71%
    21:00 +3°C° 0 mm 6 m/s 745 mmHg 70%
    22:00 +2°C° 0 mm 5 m/s 745 mmHg 70%
    23:00 +1°C° 0 mm 5 m/s 746 mmHg 69%

    26 Septembrie, Miercuri

    Timp Temperatura Precipitaţii Vânt Presiune Umiditate
    00:00 +1°C° 0 mm 5 m/s 746 mmHg 71%
    01:00 +1°C° 0 mm 4 m/s 747 mmHg 72%
    02:00 +1°C° 0 mm 4 m/s 747 mmHg 73%
    03:00 +1°C° 0 mm 4 m/s 747 mmHg 77%
    04:00 +1°C° 0 mm 4 m/s 748 mmHg 80%
    05:00 +1°C° 0 mm 4 m/s 748 mmHg 84%
    06:00 +3°C° 0 mm 4 m/s 748 mmHg 82%
    07:00 +2°C° 0 mm 5 m/s 748 mmHg 79%
    08:00 +3°C° 0 mm 5 m/s 748 mmHg 77%
    09:00 +6°C° 0 mm 5 m/s 748 mmHg 73%
    10:00 +7°C° 0 mm 5 m/s 748 mmHg 69%
    11:00 +8°C° 0 mm 4 m/s 748 mmHg 65%
    12:00 +9°C° 0 mm 5 m/s 748 mmHg 64%
    13:00 +9°C° 0 mm 5 m/s 747 mmHg 63%
    14:00 +10°C° 0 mm 5 m/s 747 mmHg 62%
    15:00 +9°C° 0.2 mm 5 m/s 746 mmHg 70%
    16:00 +8°C° 0.2 mm 5 m/s 745 mmHg 78%
    17:00 +7°C° 0.2 mm 5 m/s 744 mmHg 86%
    18:00 +7°C° 0.5 mm 5 m/s 743 mmHg 87%
    19:00 +7°C° 0.5 mm 6 m/s 742 mmHg 88%
    20:00 +7°C° 0.5 mm 6 m/s 741 mmHg 89%
    21:00 +6°C° 0.7 mm 7 m/s 740 mmHg 88%
    22:00 +6°C° 0.7 mm 7 m/s 739 mmHg 88%
    23:00 +6°C° 0.7 mm 7 m/s 738 mmHg 87%

    27 Septembrie, Joi

    Timp Temperatura Precipitaţii Vânt Presiune Umiditate
    00:00 +6°C° 0.5 mm 8 m/s 737 mmHg 87%
    01:00 +6°C° 0.5 mm 8 m/s 736 mmHg 87%
    02:00 +6°C° 0.5 mm 8 m/s 735 mmHg 87%
    03:00 +6°C° 0.5 mm 7 m/s 735 mmHg 87%
    04:00 +7°C° 0.5 mm 6 m/s 735 mmHg 87%
    05:00 +8°C° 0.5 mm 5 m/s 736 mmHg 87%
    06:00 +8°C° 0 mm 5 m/s 736 mmHg 84%
    07:00 +8°C° 0 mm 5 m/s 736 mmHg 81%
    08:00 +8°C° 0 mm 5 m/s 736 mmHg 79%
    09:00 +9°C° 0 mm 5 m/s 736 mmHg 71%
    10:00 +10°C° 0 mm 5 m/s 736 mmHg 64%
    11:00 +12°C° 0 mm 5 m/s 735 mmHg 57%
    12:00 +10°C° 0.1 mm 5 m/s 735 mmHg 60%
    13:00 +10°C° 0.1 mm 5 m/s 735 mmHg 62%
    14:00 +10°C° 0.1 mm 5 m/s 734 mmHg 65%
    15:00 +10°C° 0.2 mm 4 m/s 734 mmHg 70%
    16:00 +8°C° 0.2 mm 4 m/s 734 mmHg 75%
    17:00 +8°C° 0.2 mm 4 m/s 733 mmHg 79%
    18:00 +7°C° 0.2 mm 4 m/s 733 mmHg 81%
    19:00 +7°C° 0.2 mm 4 m/s 733 mmHg 82%
    20:00 +7°C° 0.2 mm 4 m/s 733 mmHg 83%
    21:00 +6°C° 0.2 mm 4 m/s 733 mmHg 84%
    22:00 +6°C° 0.2 mm 4 m/s 734 mmHg 85%
    23:00 +6°C° 0.2 mm 4 m/s 734 mmHg 86%

    28 Septembrie, Vineri

    Timp Temperatura Precipitaţii Vânt Presiune Umiditate
    00:00 +5°C° 0 mm 4 m/s 734 mmHg 86%
    01:00 +5°C° 0 mm 5 m/s 734 mmHg 86%
    02:00 +3°C° 0 mm 5 m/s 734 mmHg 86%
    03:00 +3°C° 0 mm 5 m/s 734 mmHg 84%
    04:00 +3°C° 0 mm 6 m/s 734 mmHg 83%
    05:00 +3°C° 0 mm 6 m/s 734 mmHg 81%
    06:00 +4°C° 0 mm 6 m/s 734 mmHg 78%
    07:00 +4°C° 0 mm 7 m/s 734 mmHg 75%
    08:00 +5°C° 0 mm 7 m/s 734 mmHg 72%
    09:00 +5°C° 0 mm 7 m/s 735 mmHg 69%
    10:00 +6°C° 0 mm 7 m/s 735 mmHg 66%
    11:00 +6°C° 0 mm 7 m/s 736 mmHg 62%
    12:00 +6°C° 0.1 mm 7 m/s 736 mmHg 61%
    13:00 +6°C° 0.1 mm 7 m/s 736 mmHg 60%
    14:00 +8°C° 0.1 mm 7 m/s 736 mmHg 58%
    15:00 +7°C° 0.1 mm 6 m/s 736 mmHg 61%
    16:00 +7°C° 0.1 mm 6 m/s 736 mmHg 64%
    17:00 +5°C° 0.1 mm 6 m/s 736 mmHg 67%
    18:00 +5°C° 0.1 mm 6 m/s 736 mmHg 70%
    19:00 +5°C° 0.1 mm 6 m/s 737 mmHg 74%
    20:00 +4°C° 0.1 mm 6 m/s 737 mmHg 77%
    21:00 +5°C° 0 mm 6 m/s 737 mmHg 79%
    22:00 +5°C° 0 mm 6 m/s 738 mmHg 80%
    23:00 +6°C° 0 mm 5 m/s 738 mmHg 81%
    Arată mai mult